Regional Weather Roundup
Issued by NWS Charleston, WV

Home | Current Version | Previous Version | Graphics & Text | Print | Product List | Glossary On
Versions: 1 2 3 4 5 6 7 8 9 10 11 12 13 14 15 16 17 18 19 20 21 22 23 24 25 26 27 28 29 30 31 32 33 34 35 36 37 38 39 40 41 42 43 44 45 46 47 48 49 50
000
ASUS41 KRLX 090810
RWRRLX
CRWRWRRLX ALL
West Virginia Regional Weather Roundup
National Weather Service Charleston WV
Issued by National Weather Service Pittsburgh PA
300 AM EST FRI DEC 09 2016

Note: "fair" indicates few or no clouds below 12,000 feet with no
significant weather and/or obstructions to visibility.

WVZ003-090900-
Northern Panhandle of West Virginia

CITY           SKY/WX    TMP DP  RH WIND       PRES   REMARKS
WHEELING       LGT SNOW  21  16  81 W14       30.31R WCI   8
$$

WVZ009-090900-
Northwest West Virginia

CITY           SKY/WX    TMP DP  RH WIND       PRES   REMARKS
PARKERSBURG      N/A     24  14  65 W13G18    30.41R WCI  12
$$

WVZ006-090900-
Western West Virginia

CITY           SKY/WX    TMP DP  RH WIND       PRES   REMARKS
HUNTINGTON     CLOUDY    25  11  55 W9        30.44R WCI  15
$$

WVZ015-090900-
West Central West Virginia

CITY           SKY/WX    TMP DP  RH WIND       PRES   REMARKS
CHARLESTON     FLURRIES  24  12  60 W13       30.41R WCI  12
$$

WVZ031-090900-
North Central West Virginia

CITY           SKY/WX    TMP DP  RH WIND       PRES   REMARKS
CLARKSBURG     FLURRIES  24  14  65 W12       30.32R WCI  13
MORGANTOWN     FLURRIES  23  14  68 VRB6      30.31R WCI  16
$$

WVZ035-042-090900-
South Central West Virginia

CITY           SKY/WX    TMP DP  RH WIND       PRES   REMARKS
BECKLEY        LGT SNOW  19  14  81 NW13      30.27R WCI   6
BLUEFIELD      CLOUDY    20  12  71 NW9G20    30.23R WCI   9
$$

WVZ045-090900-
Greenbrier Valley of West Virginia

CITY           SKY/WX    TMP DP  RH WIND       PRES   REMARKS
LEWISBURG      LGT SNOW  20  12  72 NW9G16    30.26R WCI   9
$$

WVZ047-090900-
Northern Mountains of West Virginia

CITY           SKY/WX    TMP DP  RH WIND       PRES   REMARKS
ELKINS         FLURRIES  20  10  65 VRB7      30.27R WCI  11
$$

WVZ052-090900-
Eastern Panhandle of West Virginia

CITY           SKY/WX    TMP DP  RH WIND       PRES   REMARKS
MARTINSBURG    CLEAR     27  11  51 W16       30.23R WCI  15
PETERSBURG     CLOUDY    28  12  52 W7        30.30R WCI  20
$$



USA.gov is the U.S. government's official web portal to all federal, state and local government web resources and services.